Vertical_Velocity
2 -1 2 -1 -1 -2 -2 -1 1 2 -0 1 -1 1 -2 0 -1 1 -5 -1 -0 2 2 -1 -1 1 0 3 2 2 0 3 0 -1 -4 0 1 -7 -8 -3 5 2 7 3 2
-1 -2 0 -0 1 -1 0 2 1 3 2 -1 2 -1 -0 -2 -4 3 -2 1 1 1 1 0 1 -1 -0 -2 1 3 1 -1 -2 -7 -6 -4 -2 -2 -1 -2 3 3 6 7 -3
0 -0 -0 -1 -0 -1 -1 -0 1 1 -0 0 1 2 1 -1 -3 -0 -1 1 -0 -0 -2 -0 1 -2 -1 -4 1 7 5 6 -5 0 1 1 4 -0 -9 -5 2 0 4 2 -3
-2 1 -2 -2 0 0 0 -2 1 2 2 1 3 1 -1 -1 -4 -4 -1 1 -0 1 -1 1 1 -1 -1 -4 0 3 1 6 -6 3 6 1 -2 -1 -0 -1 -3 2 2 3 5
-1 -0 -1 0 -0 2 -0 -1 2 -0 1 -3 1 -1 -0 -1 -1 -1 -0 -0 -1 -0 -0 -1 -0 -1 -1 -2 -3 2 3 6 1 -3 -2 5 4 -3 -0 -2 -3 4 7 2 3
-0 1 -1 1 2 2 -2 -4 0 0 -4 0 0 0 0 -1 -1 -1 2 2 1 -1 0 0 3 -1 1 -1 -8 9 10 5 -1 -6 2 -14 4 8 3 -1 -1 3 8 1 -0
-0 1 2 -2 -2 -3 -2 3 1 -1 2 0 -1 1 1 -2 -2 -1 2 -1 -1 -1 -2 3 -2 -5 2 -3 3 -4 4 4 -6 2 -7 -0 5 4 11 -5 -5 -3 4 5 4
-1 1 0 -1 2 2 3 2 1 1 -3 -1 1 1 -1 -1 -0 3 -2 -1 0 1 -6 -0 -5 1 4 2 -3 1 1 6 -3 5 -8 5 15 0 1 -5 -1 6 3 6 10
1 -1 -1 3 1 1 2 -1 -1 -2 -1 -0 1 -0 -4 -1 -0 8 -2 -0 1 3 -2 -3 -5 -0 5 2 -2 2 -5 1 7 5 -1 2 6 18 5 6 5 -6 -6 0 4
0 1 0 2 2 1 -1 -0 1 0 -1 -0 1 -1 -5 1 -0 3 -1 -0 -2 1 -1 1 -3 -4 -0 0 -6 -5 0 -3 5 -9 4 -7 3 25 1 -12 5 0 -1 -3 -0
0 -0 -1 1 1 -0 -0 2 -1 -1 -1 -2 0 -1 -4 -1 0 5 -3 -2 2 3 1 1 4 -1 1 1 1 0 1 0 -1 11 -2 4 5 14 5 1 -3 -5 2 -5 3
-1 -1 0 0 1 -2 -1 -1 -1 -0 0 -1 2 0 -1 -2 3 -0 2 2 0 -4 -6 -0 3 2 -1 3 -1 -4 1 2 -0 5 -3 3 20 -11 6 -1 -1 -1 -4 -5 6
0 -0 -0 -1 1 -0 -2 -1 -1 -1 -1 -0 -0 1 -1 -2 -1 -2 -0 -3 2 -1 -3 -4 -0 -2 -4 -2 -3 -1 0 2 -1 7 -7 5 21 1 7 -1 2 1 -1 1 1
-1 1 2 1 1 0 -2 0 -0 3 -3 2 0 -6 -5 -1 5 1 -5 -2 4 1 3 -3 -0 -4 -3 -2 -3 -6 -5 -5 -5 -5 2 -3 9 7 4 2 1 -2 5 5 6
0 -0 0 1 2 1 1 1 0 0 -13 -12 -3 -0 -5 4 2 2 2 -1 -0 -0 -2 -0 -2 -2 -2 -2 -1 1 -5 -2 -4 -7 -11 4 0 2 6 -2 -2 -1 -0 7 6
0 -1 -1 1 1 1 1 -0 -1 1 0 0 -5 8 -2 4 0 2 -2 -2 -4 -2 1 -0 -1 -2 -0 -5 -1 -1 -1 -2 -1 -6 -17 6 4 -15 -1 3 -0 0 -2 5 2
0 0 1 1 1 1 -1 1 -3 8 -2 -4 -3 8 2 -2 3 -2 -0 -1 -6 -8 -2 -2 -2 -3 -4 1 -2 -5 -2 -3 -6 -3 -9 -0 2 -17 -2 -2 5 5 0 -0 6
0 2 -0 0 -0 -0 0 -3 2 2 2 -1 3 3 -1 0 -3 -3 4 -2 1 -1 -2 -3 -4 -0 -3 -2 1 2 -0 1 -7 -6 -4 3 -7 -0 -5 -2 4 5 8 -0 6
2 -0 1 -0 -1 -0 -1 -1 3 4 2 1 0 -0 -0 -1 1 1 -3 -2 0 0 -3 -5 -2 -1 -0 2 3 -1 0 -1 -6 -3 -3 -1 -8 -10 -7 -7 9 13 7 7 7
2 0 -2 0 -0 3 -2 1 1 1 0 -2 -1 -3 -3 -2 -2 -4 -3 -1 3 1 -2 -2 1 -1 -4 -2 3 -4 -3 -8 -7 -4 -2 -4 -7 -1 0 -6 18 10 7 6 8
-0 2 -0 -1 4 2 -1 -1 -2 -2 -3 -5 -3 -3 -2 -2 -2 1 -2 1 0 -1 0 -1 -1 -3 -4 -11 -7 -3 -2 -3 -2 -2 -5 -3 -5 4 2 3 11 12 16 9 3
-1 0 -1 2 -3 -4 -0 -1 -1 -3 -3 -4 -3 -1 -1 -1 1 -1 0 -0 -1 -0 -1 -2 -1 -5 -5 -8 -8 -4 -1 -2 -2 0 1 1 -3 -0 -1 6 -2 9 17 22 15
0 -3 0 -3 -5 -4 -6 -3 -5 -4 -3 -3 1 -1 -1 1 -0 0 2 -1 -2 -3 -1 -1 -1 -1 -2 -3 -0 -1 2 2 2 6 8 9 1 -5 -2 3 5 4 13 13 19
-1 -2 -3 -5 -2 -6 -5 -4 -3 -2 -3 -2 -0 -0 -1 0 2 1 1 -2 -2 -1 -2 -2 -3 1 -0 -2 1 1 0 5 5 2 2 5 5 10 12 1 -6 -5 9 -3 13
0 1 0 -4 -9 -9 -4 -3 -5 -4 -2 -3 -1 -0 0 1 1 0 0 -2 -1 -2 -2 -3 -1 -0 -0 3 1 -1 1 1 -1 1 1 2 5 4 19 -5 -9 -6 6 1 4
-0 -1 -1 -1 -5 -9 -5 -5 -4 -5 -4 -3 -1 1 -1 -3 -0 -2 0 -1 0 -0 -3 -2 -1 1 -0 0 -7 2 1 0 2 1 1 2 2 10 5 -4 -16 -9 -2 -4 -13
-1 -1 -0 -0 -5 -11 -6 -3 -4 -5 -5 0 0 -0 -0 -2 1 -1 0 -0 -0 3 -0 -3 0 -0 -2 -5 -2 -3 5 4 1 -0 1 2 3 2 1 3 10 -2 -8 -11 -0
Height
5778 5780 5780 5782 5784 5786 5787 5789 5790 5792 5792 5794 5795 5796 5797 5799 5799 5800 5801 5802 5803 5803 5804 5806 5808 5808 5808 5809 5810 5811 5815 5817 5817 5818 5818 5818 5820 5822 5824 5827 5830 5831 5834 5835 5838
5778 5780 5780 5782 5784 5786 5787 5788 5790 5791 5792 5793 5794 5795 5797 5798 5799 5799 5799 5799 5799 5800 5801 5803 5805 5805 5805 5807 5807 5809 5813 5813 5812 5812 5811 5813 5815 5817 5820 5822 5824 5827 5829 5830 5833
5779 5780 5780 5782 5784 5786 5787 5789 5789 5790 5791 5791 5793 5794 5794 5795 5796 5796 5795 5795 5795 5796 5797 5798 5800 5801 5802 5802 5803 5807 5810 5808 5808 5809 5809 5811 5813 5814 5816 5817 5820 5822 5824 5825 5828
5778 5779 5780 5781 5783 5785 5786 5787 5788 5788 5788 5788 5789 5790 5791 5792 5793 5790 5791 5791 5790 5791 5792 5794 5795 5796 5796 5797 5798 5800 5802 5804 5805 5806 5807 5809 5809 5811 5814 5817 5817 5818 5819 5822 5825
5777 5778 5780 5781 5782 5784 5785 5786 5785 5786 5783 5785 5786 5786 5787 5787 5787 5785 5785 5785 5785 5786 5787 5788 5789 5789 5790 5791 5791 5792 5795 5797 5798 5799 5803 5806 5807 5806 5809 5812 5815 5815 5817 5818 5821
5776 5778 5779 5780 5781 5781 5783 5784 5783 5782 5781 5782 5781 5781 5781 5782 5782 5781 5779 5779 5780 5780 5780 5781 5782 5782 5782 5783 5783 5784 5787 5787 5790 5792 5793 5796 5800 5800 5802 5804 5808 5810 5812 5814 5817
5776 5777 5778 5779 5779 5780 5781 5780 5779 5778 5778 5777 5776 5776 5776 5776 5775 5775 5774 5773 5772 5771 5771 5771 5771 5772 5773 5773 5775 5776 5777 5778 5779 5782 5784 5787 5792 5793 5795 5796 5798 5802 5804 5808 5811
5775 5775 5776 5777 5777 5777 5777 5776 5774 5774 5773 5772 5771 5770 5768 5768 5767 5766 5764 5764 5763 5763 5762 5761 5761 5763 5763 5764 5764 5765 5766 5767 5767 5771 5776 5781 5784 5783 5783 5783 5784 5787 5791 5796 5801
5773 5774 5775 5775 5775 5774 5773 5772 5770 5769 5767 5766 5765 5763 5762 5761 5760 5759 5756 5755 5755 5754 5753 5752 5753 5753 5753 5752 5752 5753 5753 5755 5756 5759 5763 5769 5770 5774 5772 5771 5774 5774 5777 5783 5789
5773 5773 5773 5773 5772 5771 5769 5768 5766 5765 5763 5761 5759 5758 5756 5755 5752 5750 5748 5747 5745 5744 5743 5742 5742 5741 5741 5740 5740 5740 5741 5741 5741 5747 5750 5753 5757 5759 5752 5759 5761 5763 5767 5771 5777
5772 5771 5771 5770 5769 5768 5767 5765 5764 5761 5758 5756 5754 5751 5749 5748 5745 5743 5739 5737 5734 5733 5732 5729 5728 5726 5726 5725 5724 5725 5726 5727 5727 5730 5736 5739 5741 5736 5740 5745 5747 5749 5755 5761 5766
5769 5769 5768 5767 5766 5765 5763 5760 5758 5757 5753 5751 5749 5746 5743 5740 5736 5732 5728 5726 5721 5717 5715 5713 5711 5709 5708 5707 5706 5707 5708 5708 5709 5711 5714 5722 5725 5714 5721 5730 5735 5738 5741 5748 5756
5767 5767 5766 5766 5764 5761 5758 5756 5753 5751 5748 5745 5742 5739 5734 5730 5724 5720 5716 5712 5708 5703 5700 5698 5696 5693 5690 5688 5687 5688 5688 5688 5689 5692 5692 5699 5703 5700 5703 5711 5719 5725 5730 5736 5743
5766 5766 5764 5763 5761 5757 5755 5752 5749 5746 5742 5739 5733 5727 5721 5717 5712 5707 5701 5699 5696 5693 5691 5689 5687 5684 5681 5678 5677 5675 5674 5673 5671 5671 5675 5675 5678 5680 5686 5691 5699 5708 5715 5723 5731
5764 5763 5761 5759 5757 5754 5752 5749 5745 5741 5734 5728 5721 5715 5709 5706 5700 5696 5691 5688 5687 5686 5685 5683 5680 5677 5675 5672 5671 5668 5665 5662 5660 5659 5658 5661 5654 5652 5664 5673 5681 5690 5698 5708 5716
5762 5760 5759 5757 5754 5752 5748 5744 5739 5733 5724 5717 5709 5702 5698 5693 5688 5685 5684 5683 5682 5681 5679 5676 5674 5671 5667 5663 5660 5657 5655 5652 5650 5647 5646 5648 5638 5635 5640 5654 5663 5672 5681 5692 5702
5760 5759 5757 5755 5753 5749 5744 5738 5732 5722 5713 5704 5695 5692 5686 5683 5682 5681 5681 5679 5678 5676 5673 5670 5666 5663 5658 5653 5648 5644 5643 5641 5638 5636 5634 5630 5624 5621 5627 5635 5647 5656 5665 5675 5687
5759 5758 5756 5754 5750 5745 5739 5731 5721 5710 5700 5690 5685 5682 5679 5679 5679 5679 5679 5676 5674 5670 5667 5663 5660 5654 5648 5643 5639 5635 5633 5631 5628 5625 5624 5620 5613 5617 5618 5623 5632 5642 5654 5662 5674
5759 5757 5756 5752 5747 5740 5731 5720 5709 5697 5688 5681 5678 5676 5677 5678 5678 5677 5675 5671 5669 5666 5664 5657 5653 5646 5641 5635 5630 5627 5626 5625 5621 5617 5616 5614 5612 5611 5611 5615 5622 5632 5643 5652 5663
5759 5758 5754 5749 5742 5733 5723 5710 5697 5686 5680 5676 5675 5676 5677 5677 5676 5674 5671 5668 5666 5663 5657 5652 5646 5641 5634 5626 5623 5622 5623 5621 5618 5615 5612 5609 5606 5605 5604 5608 5612 5624 5633 5643 5652
5759 5757 5752 5746 5738 5727 5715 5700 5689 5683 5680 5678 5677 5678 5678 5676 5675 5672 5669 5666 5662 5658 5653 5647 5642 5639 5633 5626 5622 5622 5620 5618 5615 5613 5609 5605 5602 5600 5597 5599 5604 5615 5622 5634 5645
5758 5755 5750 5743 5734 5722 5708 5695 5688 5684 5682 5680 5679 5679 5678 5676 5674 5670 5667 5664 5661 5656 5650 5645 5641 5637 5634 5630 5627 5622 5621 5618 5614 5611 5606 5602 5598 5592 5591 5594 5601 5608 5616 5623 5633
5757 5753 5748 5740 5730 5719 5704 5694 5689 5686 5684 5682 5681 5680 5678 5675 5673 5669 5666 5664 5660 5656 5650 5645 5640 5638 5635 5632 5628 5624 5620 5616 5612 5607 5603 5599 5595 5592 5591 5592 5600 5604 5613 5615 5627
5758 5753 5747 5739 5729 5717 5702 5694 5690 5686 5684 5683 5682 5680 5677 5675 5674 5670 5667 5665 5661 5656 5651 5647 5641 5638 5636 5631 5628 5623 5618 5613 5608 5604 5601 5597 5593 5590 5587 5589 5597 5605 5609 5615 5622
5757 5753 5747 5739 5729 5718 5703 5695 5691 5687 5684 5684 5683 5681 5678 5677 5675 5672 5669 5666 5662 5659 5654 5650 5645 5641 5636 5632 5626 5620 5615 5610 5604 5600 5598 5596 5592 5591 5590 5597 5600 5607 5613 5618 5624
5758 5753 5747 5740 5731 5719 5705 5697 5693 5690 5688 5686 5684 5681 5680 5678 5676 5673 5670 5667 5665 5661 5657 5653 5649 5644 5639 5633 5625 5618 5613 5608 5604 5598 5596 5595 5593 5590 5594 5600 5608 5614 5618 5620 5626
5758 5753 5749 5742 5734 5723 5711 5701 5696 5693 5690 5688 5686 5683 5680 5679 5676 5674 5672 5669 5667 5664 5659 5655 5652 5647 5641 5636 5629 5624 5617 5611 5606 5603 5599 5598 5597 5596 5597 5601 5608 5615 5620 5624 5627